Regional Weather Roundup
Issued by NWS

Home | Current Version | Previous Version | Graphics & Text | Print | Product List | Glossary Off
Versions: 1 2 3 4 5 6 7 8 9 10 11 12 13 14 15 16 17 18 19 20 21 22 23 24 25 26 27 28 29 30 31 32 33 34 35 36 37 38 39 40 41 42 43 44 45 46 47 48 49 50

000
ASUS43 KTOP 171208
RWRKS

WEATHER ROUNDUP FOR KANSAS
NATIONAL WEATHER SERVICE GOODLAND KS
600 AM CST SAT FEB 17 2018

NOTE:  "FAIR" INDICATES FEW OR NO CLOUDS BELOW 12,000 FEET WITH NO
SIGNIFICANT WEATHER AND/OR OBSTRUCTIONS TO VISIBILITY.

KSZ001>006-013>018-027>032-041>047-171300-
NORTHWEST KANSAS

CITY           SKY/WX    TMP DP  RH WIND       PRES   REMARKS
GOODLAND       CLEAR     28  21  75 NW12      29.95R WCI  18
6HR MIN TEMP:  21; 6HR MAX TEMP:  29;

HAYS           CLOUDY    22  15  75 W5        29.94
HILL CITY      CLOUDY    22  17  81 W7        29.95R
6HR MIN TEMP:  19; 6HR MAX TEMP:  29;

RUSSELL        CLOUDY    26  16  65 W6        29.93R
6HR MIN TEMP:  25; 6HR MAX TEMP:  33;

$$

KSZ061>065-074>080-084>089-171300-
SOUTHWEST KANSAS

CITY           SKY/WX    TMP DP  RH WIND       PRES   REMARKS
DODGE CITY     CLOUDY    36  25  64 NW15      29.93R WCI  27
6HR MIN TEMP:  32; 6HR MAX TEMP:  36;

ELKHART        MOCLDY    41  28  60 N12       29.96R
GARDEN CITY    CLOUDY    29  19  66 N10       29.94R WCI  20
6HR MIN TEMP:  28; 6HR MAX TEMP:  34;

GREAT BEND     CLOUDY    26  17  68 SW7       29.95R
LIBERAL        PTCLDY    38  29  70 NW14      29.95R WCI  30
PRATT          PTCLDY    28  23  81 SW9       29.94R
6HR MIN TEMP:  27; 6HR MAX TEMP:  34;

$$

KSZ066>073-081>083-090>101-171300-
SOUTHEAST KANSAS

CITY           SKY/WX    TMP DP  RH WIND       PRES   REMARKS
CHANUTE        LGT RAIN  36  35  96 S9        29.98F FOG
6HR MIN TEMP:  35; 6HR MAX TEMP:  36; 6HR PCP:  0.18;

COFFEYVILLE    CLOUDY    37  36  96 SE6       29.99F
6HR MIN TEMP:  36; 6HR MAX TEMP:  37; 6HR PCP:  0.22;

HUTCHINSON     CLEAR     29  23  78 S7        29.93R
6HR MIN TEMP:  29; 6HR MAX TEMP:  37;

MEDICINE LODGE   N/A     31  27  85 S6        29.95R
NEWTON         CLOUDY    32  28  85 S12       29.94R WCI  23
PARSONS        CLOUDY    36  36 100 CALM      30.00F
6HR MIN TEMP:  34; 6HR MAX TEMP:  38; 6HR PCP:  0.19;

WICHITA INTL   CLOUDY    35  31  85 S9        29.95R
6HR MIN TEMP:  34; 6HR MAX TEMP:  37;

WICHITA JABRA  CLOUDY    34  31  88 S14       29.94S WCI  25
6HR MIN TEMP:  33; 6HR MAX TEMP:  36;

WICHITA MCCONL CLOUDY    32  30  90 S8        29.95
WINFIELD       CLOUDY    35  34  96 S10       29.99R WCI  27
6HR MIN TEMP:  33; 6HR MAX TEMP:  36; 6HR PCP:  0.07;

$$

KSZ007>012-019>026-033>040-048>060-102>105-171300-
NORTHEAST KANSAS

CITY           SKY/WX    TMP DP  RH WIND       PRES   REMARKS
CONCORDIA      CLOUDY    26  17  68 SW6       29.92R
6HR MIN TEMP:  23; 6HR MAX TEMP:  29;

EMPORIA        CLOUDY    33  28  81 S14       29.95S WCI  23
6HR MIN TEMP:  31; 6HR MAX TEMP:  33;

LAWRENCE       MIX PCPN  32  21  64 SE7       29.96F
6HR MIN TEMP:  27; 6HR MAX TEMP:  33; 6HR PCP: TRACE;

MANHATTAN      CLOUDY    31  20  63 CALM      29.93F
6HR MIN TEMP:  26; 6HR MAX TEMP:  36;

MARYSVILLE     CLOUDY    30  19  64 S10       29.91F WCI  21
OLATHE IND     CLOUDY    33  25  72 S15       29.97F WCI  23
6HR MIN TEMP:  30; 6HR MAX TEMP:  33;

OLATHE EXE     CLOUDY    32  24  72 S13       29.96F WCI  22
6HR MIN TEMP:  29; 6HR MAX TEMP:  32;

SALINA         CLOUDY    28  18  66 SW3       29.94R
6HR MIN TEMP:  27; 6HR MAX TEMP:  33;

TOPEKA BILLARD CLOUDY    33  19  56 SE6       29.96F
6HR MIN TEMP:  28; 6HR MAX TEMP:  34;

TOPEKA FORBES  CLOUDY    32  25  75 S7        29.95S
6HR MIN TEMP:  29; 6HR MAX TEMP:  33; 6HR PCP: TRACE;

$$




USA.gov is the U.S. government's official web portal to all federal, state and local government web resources and services.